Kezdőlap
METAR-TAF:

METAR-TAF

Repülőterek :

Marshall County Airport

Lacon, Illinois, Amerikai Egyesült Államok

földrajzi szélesség: 41-01-09N, földrajzi hosszúság: 089-23-11W, magasság: 173 m

Jelenlegi meteorológiai megfigyelések

A jelentés 29 perccel ezelõtt készült, 12:55 UTC
Szélcsend
Hőmérséklet -1°C
Páratartalom 100%
Légköri nyomás 1025 hPa
Látótávolság: 4.8 km
Szórványos felhőzet 400 lábon
Párásság

METAR: KC75 041255Z AUTO 00000KT 3SM BR SCT004 M01/M01 A3028 RMK AO2 T10121014

Idő: 07:24 (13:24 UTC)


TAF: hiányzik

Meteorológiai megfigyelések és előrejelzések több, mint 4000 repülőtéren (METAR és TAF jelentéseket).

A térképen piros és sárga pontok jelzik az elérhető meteorológiai állomásokat.

Mozgassa az egeret a pont fölött, hogy megjelenjen az állomás neve.

Azután kattintson az időjárási megfigyelések és előrejelzések megtekintéséhez.

A térkép megváltoztatása: kattintson a fekete keresztel jelölt zöld gombra ráközelítéshez, a vonallal jelölt zöld gombra távolításhoz, vagy a zöld nyilakra a szomszédos térképek eléréséhez.


METAR-TAF: